Date String (YYYY-MM-DD hh:mm:ss) UTC,Instrument flags,absolute air pressure of the measurement (hPa),sample flow rate (lpm),inlet stack bypass flow (lpm),air temperature of the measurement (°C),ambient temperature measured by the external sensor (°C),aerosol sample conditioner tube jacket temperature (°C),OPC LED temperature (°C),internal box temperature (°C),relative humidity of the measurement (%),span deviation,mass concentration of particles derived from Lorenz-Mie calculation of OPC scattering (μg/m³),mass concentration of particles derived from Lorenz-Mie calculation of OPC scattering (μg/m³),mass concentration of particles derived from Lorenz-Mie calculation of OPC scattering (μg/m³)
DateTimeUTC,F1_M11,P_M11,Q1_M11,Q2_M11,T1_M11,T2_M11,T3_M11,T4_M11,T5_M11,U1_M11,ZSPAN_M11,X2_M11,X0_M11,X1_M11
2024-02-29 11:00:00,SystemResetWarning,0825.9,4.99,000.00,019.3,018.5,000.0,027.8,021.0,10.1,0000.0,0004.46,0014.25,0003.13
2024-02-29 11:01:00,SystemResetWarning,0825.8,5.00,000.00,019.2,018.5,000.0,027.8,021.0,10.1,0000.0,0004.44,0014.63,0003.13
2024-02-29 11:02:00,SystemResetWarning,0825.8,4.99,000.00,019.3,018.5,000.0,027.8,021.0,10.1,0000.0,0004.47,0013.97,0003.15
2024-02-29 11:03:00,SystemResetWarning,0825.9,5.00,000.00,019.2,018.5,000.0,027.8,021.0,10.1,0000.0,0004.50,0013.97,0003.16
2024-02-29 11:04:00,SystemResetWarning,0825.9,4.99,000.00,019.2,018.5,000.0,027.7,020.9,10.1,0000.0,0004.55,0014.13,0003.17
2024-02-29 11:05:00,SystemResetWarning,0825.9,5.00,000.00,019.2,018.5,000.0,027.7,020.9,10.1,0000.0,0004.53,0013.47,0003.18
2024-02-29 11:06:00,SystemResetWarning,0825.9,5.01,000.00,019.2,018.5,000.0,027.7,021.0,10.1,0000.0,0004.54,0014.08,0003.18
2024-02-29 11:07:00,SystemResetWarning,0825.9,5.01,000.00,019.2,018.4,000.0,027.7,020.9,10.1,0000.0,0004.56,0014.85,0003.18
2024-02-29 11:08:00,SystemResetWarning,0825.9,4.99,000.00,019.2,018.4,000.0,027.7,020.9,10.1,0000.0,0004.58,0014.65,0003.17
2024-02-29 11:09:00,SystemResetWarning,0825.9,4.99,000.00,019.2,018.4,000.0,027.7,020.9,10.1,0000.0,0004.64,0014.72,0003.17
2024-02-29 11:10:00,SystemResetWarning,0825.9,5.01,000.00,019.2,018.4,000.0,027.7,020.8,10.1,0000.0,0004.66,0014.74,0003.18
2024-02-29 11:11:00,SystemResetWarning,0825.9,5.00,000.00,019.2,018.4,000.0,027.7,020.8,10.1,0000.0,0004.67,0013.91,0003.19
2024-02-29 11:12:00,SystemResetWarning,0825.9,5.00,000.00,019.1,018.4,000.0,027.7,020.9,10.1,0000.0,0004.67,0014.18,0003.20
2024-02-29 11:13:00,SystemResetWarning,0825.9,5.00,000.00,019.1,018.4,000.0,027.7,020.9,10.1,0000.0,0004.66,0014.39,0003.20
2024-02-29 11:14:00,SystemResetWarning,0825.9,5.00,000.00,019.1,018.4,000.0,027.6,020.9,10.1,0000.0,0004.73,0015.09,0003.19
2024-02-29 11:15:00,SystemResetWarning,0825.9,5.00,000.00,019.2,018.4,000.0,027.6,020.9,10.0,0000.0,0004.76,0014.82,0003.21
2024-02-29 11:16:00,SystemResetWarning,0825.9,5.00,000.00,019.2,018.4,000.0,027.6,020.9,10.0,0000.0,0004.72,0014.74,0003.20
2024-02-29 11:17:00,SystemResetWarning,0825.9,5.00,000.00,019.2,018.4,000.0,027.6,020.9,09.8,0000.0,0004.71,0014.86,0003.19
2024-02-29 11:18:00,SystemResetWarning,0825.9,5.00,000.00,019.1,018.4,000.0,027.6,020.9,10.0,0000.0,0004.77,0014.53,0003.18
2024-02-29 11:19:00,SystemResetWarning,0825.9,5.00,000.00,019.2,018.4,000.0,027.6,020.9,10.1,0000.0,0004.82,0015.46,0003.19
2024-02-29 11:20:00,SystemResetWarning,0825.9,5.00,000.00,019.1,018.4,000.0,027.6,020.9,10.0,0000.0,0004.78,0015.85,0003.18
2024-02-29 11:21:00,SystemResetWarning,0825.9,5.00,000.00,019.1,018.4,000.0,027.6,020.8,10.1,0000.0,0004.75,0016.05,0003.17
2024-02-29 11:22:00,SystemResetWarning,0825.9,5.00,000.00,019.1,018.3,000.0,027.6,020.8,10.0,0000.0,0004.72,0016.34,0003.17
2024-02-29 11:23:00,SystemResetWarning,0825.9,5.00,000.00,019.1,018.3,000.0,027.6,020.8,10.0,0000.0,0004.68,0015.68,0003.16
2024-02-29 11:24:00,SystemResetWarning,0825.9,5.00,000.00,019.1,018.3,000.0,027.6,020.8,10.0,0000.0,0004.69,0015.92,0003.16
2024-02-29 11:25:00,SystemResetWarning,0826.0,5.00,000.00,019.1,018.3,000.0,027.6,020.7,10.0,0000.0,0004.63,0015.54,0003.16
2024-02-29 11:26:00,SystemResetWarning,0825.9,5.00,000.00,019.1,018.3,000.0,027.6,020.7,10.0,0000.0,0004.61,0015.88,0003.15
2024-02-29 11:27:00,SystemResetWarning,0825.9,5.00,000.00,019.1,018.3,000.0,027.5,020.8,10.0,0000.0,0004.70,0016.12,0003.16
2024-02-29 11:28:00,SystemResetWarning,0825.9,5.01,000.00,019.0,018.2,000.0,027.5,020.7,10.0,0000.0,0004.77,0015.71,0003.17
2024-02-29 11:29:00,SystemResetWarning,0825.8,5.00,000.00,019.0,018.2,000.0,027.5,020.7,10.1,0000.0,0004.69,0014.61,0003.15
2024-02-29 11:30:00,SystemResetWarning,0825.8,5.00,000.00,019.0,018.1,000.0,027.5,020.6,10.1,0000.0,0004.64,0013.94,0003.15
2024-02-29 11:31:00,SystemResetWarning,0825.8,4.99,000.00,018.9,018.1,000.0,027.5,020.6,10.1,0000.0,0004.61,0013.55,0003.15
2024-02-29 11:32:00,SystemResetWarning,0825.8,5.00,000.00,018.9,018.1,000.0,027.5,020.6,10.1,0000.0,0004.59,0013.73,0003.15
2024-02-29 11:33:00,SystemResetWarning,0825.8,5.00,000.00,018.9,018.1,000.0,027.5,020.6,10.2,0000.0,0004.66,0014.17,0003.16
2024-02-29 11:34:00,SystemResetWarning,0825.8,5.00,000.00,018.9,018.1,000.0,027.5,020.6,10.1,0000.0,0004.72,0015.31,0003.16
2024-02-29 11:35:00,SystemResetWarning,0825.8,5.00,000.00,018.9,018.1,000.0,027.5,020.6,09.9,0000.0,0004.72,0014.69,0003.16
2024-02-29 11:36:00,SystemResetWarning,0825.9,5.00,000.00,018.9,018.1,000.0,027.4,020.6,09.9,0000.0,0004.65,0014.10,0003.17
2024-02-29 11:37:00,SystemResetWarning,0825.9,5.00,000.00,018.9,018.1,000.0,027.4,020.6,10.0,0000.0,0004.60,0014.61,0003.16
2024-02-29 11:38:00,SystemResetWarning,0825.9,5.00,000.00,018.9,018.1,000.0,027.4,020.6,09.8,0000.0,0004.55,0014.40,0003.16
2024-02-29 11:39:00,SystemResetWarning,0825.9,5.00,000.00,018.9,018.1,000.0,027.4,020.6,09.8,0000.0,0004.50,0014.32,0003.16
2024-02-29 11:40:00,SystemResetWarning,0825.9,5.00,000.00,018.9,018.1,000.0,027.4,020.6,10.0,0000.0,0004.51,0015.81,0003.17
2024-02-29 11:41:00,SystemResetWarning,0825.9,5.00,000.00,018.9,018.1,000.0,027.4,020.6,10.2,0000.0,0004.55,0015.74,0003.18
2024-02-29 11:42:00,SystemResetWarning,0825.9,5.01,000.00,018.8,018.0,000.0,027.4,020.5,10.4,0000.0,0004.63,0016.68,0003.19
2024-02-29 11:43:00,SystemResetWarning,0825.9,5.00,000.00,018.8,018.0,000.0,027.4,020.5,10.4,0000.0,0004.65,0016.23,0003.19
2024-02-29 11:44:00,SystemResetWarning,0825.9,5.00,000.00,018.8,018.0,000.0,027.4,020.5,10.3,0000.0,0004.61,0015.58,0003.18
2024-02-29 11:45:00,SystemResetWarning,0825.9,5.00,000.00,018.8,018.0,000.0,027.4,020.5,10.3,0000.0,0004.53,0015.04,0003.18
2024-02-29 11:46:00,SystemResetWarning,0825.9,5.00,000.00,018.8,018.0,000.0,027.3,020.5,10.4,0000.0,0004.53,0016.32,0003.17
2024-02-29 11:47:00,SystemResetWarning,0825.9,5.00,000.00,018.8,018.0,000.0,027.3,020.5,10.5,0000.0,0004.59,0017.67,0003.16
2024-02-29 11:48:00,SystemResetWarning,0825.9,5.00,000.00,018.8,018.0,000.0,027.3,020.5,10.4,0000.0,0004.61,0016.89,0003.16
2024-02-29 11:49:00,SystemResetWarning,0825.9,4.98,000.00,018.8,018.0,000.0,027.3,020.5,10.3,0000.0,0004.57,0016.27,0003.15
2024-02-29 11:50:00,SystemResetWarning,0825.9,5.00,000.00,018.8,018.0,000.0,027.3,020.5,10.2,0000.0,0004.54,0016.53,0003.14
2024-02-29 11:51:00,SystemResetWarning,0825.9,5.02,000.00,018.8,018.0,000.0,027.3,020.4,10.1,0000.0,0004.57,0015.35,0003.14
2024-02-29 11:52:00,SystemResetWarning,0825.9,5.00,000.00,018.8,018.0,000.0,027.3,020.4,10.1,0000.0,0004.51,0015.02,0003.13
2024-02-29 11:53:00,SystemResetWarning,0825.9,5.00,000.00,018.8,018.0,000.0,027.3,020.5,10.1,0000.0,0004.49,0015.50,0003.11
2024-02-29 11:54:00,SystemResetWarning,0825.9,4.99,000.00,018.8,018.0,000.0,027.3,020.5,09.9,0000.0,0004.50,0016.02,0003.11
2024-02-29 11:55:00,SystemResetWarning,0825.9,4.99,000.00,018.8,018.0,000.0,027.2,020.5,10.0,0000.0,0004.54,0016.42,0003.11
2024-02-29 11:56:00,SystemResetWarning,0825.9,5.01,000.00,018.8,018.1,000.0,027.2,020.5,10.0,0000.0,0004.56,0016.64,0003.12
2024-02-29 11:57:00,SystemResetWarning,0825.9,5.01,000.00,018.8,018.1,000.0,027.2,020.4,10.0,0000.0,0004.55,0015.95,0003.13
2024-02-29 11:58:00,SystemResetWarning,0825.9,5.01,000.00,018.8,018.1,000.0,027.2,020.5,09.9,0000.0,0004.53,0014.91,0003.14
2024-02-29 11:59:00,SystemResetWarning,0825.9,5.00,000.00,018.8,018.1,000.0,027.2,020.5,10.1,0000.0,0004.53,0015.59,0003.14
